Location: Shenandoah County Park
(38.9356°N, 78.4524°W)
Time: 02:38:01
(UTC-05:00)

A-11 Canister half - Pass Details

Date: 09 December 2023
Orbit: 1526 x 1682 km, 47.3° (Epoch: 01 March)

Event Time Altitude Azimuth Distance (km) Brightness Sun altitude
Rises 17:29:02 0° 227° (SW) 4,889 13.2 -7.4°
Reaches altitude 10° 17:32:10 10° 226° (SW) 3,915 12.4 -7.9°
Maximum altitude 17:42:13 74° 143° (SE) 1,737 9.2 -9.7°
Enters shadow 17:51:30 13° 62° (ENE) 3,686 10.3 -11.4°
